Location: Mountain_View
(35.6670°N, 81.4000°W)
Time: 22:25:12
(UTC-04:00)

Amateur Radio Satellites - All Passes

Search period start: 02 September 2015 21:55
Search period end: 03 September 2015 21:55
Location: Mountain_View, 35.6670°N, 81.4000°W

Satellite Date Start Highest point End Downlink Frequencies (MHz)
Time Altitude Azimuth
STRAND 1 02 Sep 22:02:43 22:05:22 14° 295° (WNW) 22:07:45 437.568
ZACube-1 02 Sep 22:20:05 22:24:33 63° 76° (ENE) 22:29:07 437.345
CUTE 1.7 + AOD 2 02 Sep 22:20:53 22:23:47 17° 268° (W) 22:26:32 437.475
FUNcube-1 02 Sep 22:24:26 22:28:56 68° 76° (ENE) 22:33:30 145.935
DOVE 4 02 Sep 22:26:55 22:29:01 12° 272° (W) 22:30:52 437.250
Cosmos 2504 02 Sep 22:27:36 22:32:23 18° 81° (E) 22:37:47 435.465 / 435.565
CUBEBUG 2 02 Sep 22:29:21 22:33:56 59° 261° (W) 22:38:37 437.445
UWE-3 02 Sep 22:31:44 22:36:19 72° 259° (W) 22:41:01 435.000/436.395/437.385
HUMSAT D 02 Sep 22:47:29 22:51:37 47° 74° (ENE) 22:55:48 437.325/437.525
TIGRISAT 02 Sep 22:49:12 22:50:39 12° 89° (E) 22:52:24 435.000
CINEMA 3 02 Sep 22:55:53 22:58:35 14° 271° (W) 23:01:05 145.822/145.860
BEESAT 3 02 Sep 22:58:09 22:58:23 10° 44° (NE) 22:58:50 437.485
DX 1 02 Sep 23:04:33 23:08:36 41° 73° (ENE) 23:12:42 434.975-435.025
ANTELSAT 02 Sep 23:05:44 23:08:58 20° 93° (E) 23:12:16 437.575/2403.000
Oscar 11 02 Sep 23:09:41 23:13:06 21° 266° (W) 23:16:24 145.826/435.025
BEESAT 2 02 Sep 23:12:44 23:13:49 11° 44° (NE) 23:15:05 435.950
UKube-1 02 Sep 23:13:34 23:17:41 47° 74° (ENE) 23:21:51 .
QB50P2 02 Sep 23:25:44 23:25:57 10° 89° (E) 23:26:27 145.880/145.840
DELFI C3 02 Sep 23:27:28 23:30:26 19° 267° (W) 23:33:16 145.870
CUBEBUG 1 02 Sep 23:29:40 23:33:19 28° 72° (ENE) 23:37:05 437.445
ESTCUBE 1 02 Sep 23:30:30 23:34:35 37° 73° (ENE) 23:38:44 437.505/2401.250
AISAT 02 Sep 23:35:17 23:39:36 60° 75° (ENE) 23:43:58 437.250
YUBILEINY 02 Sep 23:36:53 23:43:28 22° 294° (WNW) 23:49:40 435.215
QB50P1 02 Sep 23:37:41 23:39:58 15° 91° (E) 23:42:29 145.935-145.965
SO-50 02 Sep 23:48:54 23:50:03 11° 108° (ESE) 23:51:33 436.795
50 SAT 02 Sep 23:49:04 23:53:02 75° 260° (W) 23:56:59 437.505
UNISAT 6 02 Sep 23:55:40 00:00:13 77° 102° (ESE) 00:04:37 437.425
ZACube-1 03 Sep 00:00:31 00:01:24 10° 272° (W) 00:01:57 437.345
RS-15 03 Sep 00:01:30 00:11:16 30° 38° (NE) 00:21:38 29.354- 29.394
VELOX 1 03 Sep 00:02:48 00:07:10 67° 259° (W) 00:11:34 145.980
CUSAT 1 03 Sep 00:13:00 00:16:38 42° 91° (E) 00:21:27 437.405
TISAT 1 03 Sep 00:13:14 00:15:20 14° 68° (ENE) 00:17:40 437.305
Cosmos 2504 03 Sep 00:15:31 00:23:38 80° 278° (W) 00:32:15 435.465 / 435.565
AUBIESAT-1 03 Sep 00:16:31 00:20:18 66° 105° (ESE) 00:23:47 437.475
TIGRISAT 03 Sep 00:23:24 00:27:50 53° 286° (WNW) 00:32:08 435.000
M-CUBED/EXP-1 PRIME 03 Sep 00:24:05 00:27:57 78° 286° (WNW) 00:31:28 437.505
HUMSAT D 03 Sep 00:25:38 00:27:39 13° 270° (W) 00:29:25 437.325/437.525
BEESAT 3 03 Sep 00:32:51 00:36:53 76° 242° (WSW) 00:40:49 437.485
BUGSAT 1 03 Sep 00:36:31 00:40:34 42° 99° (E) 00:44:38 437.445
PCSat 03 Sep 00:37:01 00:38:59 12° 105° (ESE) 00:41:19 145.827
POLYITAN 1 03 Sep 00:38:41 00:43:01 83° 100° (E) 00:47:18 437.675
DUCHIFAT 1 03 Sep 00:38:44 00:43:02 78° 101° (E) 00:47:18 145.980
POPSAT HIP 1 03 Sep 00:40:21 00:44:41 85° 102° (ESE) 00:48:58 437.405
ANTELSAT 03 Sep 00:41:48 00:45:51 32° 288° (WNW) 00:49:44 437.575/2403.000
DX 1 03 Sep 00:42:38 00:45:05 14° 268° (W) 00:47:19 434.975-435.025
BEESAT 2 03 Sep 00:48:20 00:52:22 69° 243° (WSW) 00:56:19 435.950
SPROUT 03 Sep 00:51:37 00:55:53 75° 77° (ENE) 01:00:12 437.525
UKube-1 03 Sep 00:52:12 00:54:08 12° 269° (W) 00:55:48 .
NANOSAT C BR1 03 Sep 00:57:10 01:01:25 61° 285° (WNW) 01:05:37 145.865
DANDE 03 Sep 00:57:45 01:01:09 83° 98° (E) 01:05:44 436.750
QB50P2 03 Sep 00:58:01 01:02:15 56° 285° (WNW) 01:06:26 145.880/145.840
CUBEBUG 1 03 Sep 01:06:24 01:09:42 21° 266° (W) 01:12:55 437.445
ESTCUBE 1 03 Sep 01:08:36 01:11:37 17° 268° (W) 01:14:28 437.505/2401.250
QB50P1 03 Sep 01:12:01 01:16:03 39° 287° (WNW) 01:20:01 145.935-145.965
SO-50 03 Sep 01:25:18 01:30:03 71° 302° (WNW) 01:34:57 436.795
ITUPSAT 1 03 Sep 01:33:21 01:36:40 20° 68° (ENE) 01:40:09 437.325
AIST 2 03 Sep 01:40:09 01:44:19 78° 60° (ENE) 01:48:25 435.215
Oscar 19 03 Sep 01:40:59 01:43:29 14° 90° (E) 01:46:17 437.125/150
TISAT 1 03 Sep 01:46:47 01:50:46 42° 261° (W) 01:54:48 437.305
CUSAT 1 03 Sep 01:57:37 01:59:55 13° 299° (WNW) 02:02:16 437.405
BEESAT 03 Sep 02:03:45 02:08:13 42° 73° (ENE) 02:12:43 436.000
Cosmos 2504 03 Sep 02:13:18 02:17:32 14° 299° (WNW) 02:21:13 435.465 / 435.565
BUGSAT 1 03 Sep 02:13:18 02:15:42 14° 292° (WNW) 02:17:55 437.445
RS-15 03 Sep 02:13:26 02:25:26 86° 241° (WSW) 02:37:44 29.354- 29.394
PCSat 03 Sep 02:16:28 02:21:52 72° 299° (WNW) 02:27:18 145.827
GONETS M04 03 Sep 02:26:09 02:33:26 33° 86° (E) 02:40:57
SWISSCUBE 03 Sep 02:29:43 02:34:29 89° 83° (E) 02:39:17 437.505
VERMONT LUNAR 03 Sep 02:35:42 02:38:29 35° 151° (SSE) 02:41:15 437.305
KKS-1 03 Sep 02:39:07 02:41:26 15° 67° (ENE) 02:43:57 437.445
Gurwin Techsat 1B 03 Sep 02:40:07 02:43:17 16° 91° (E) 02:46:42 435.225
ITAMSAT 1 03 Sep 02:44:58 02:47:26 14° 90° (E) 02:50:13 435.822/435.867
ITUPSAT 1 03 Sep 03:09:52 03:14:19 38° 262° (W) 03:18:45 437.325
SO-50 03 Sep 03:11:13 03:11:35 10° 321° (NW) 03:11:42 436.795
Oscar 19 03 Sep 03:18:11 03:23:19 59° 286° (WNW) 03:28:23 437.125/150
Cosmos 2499 03 Sep 03:35:37 03:41:41 23° 83° (E) 03:48:19 435.465 / 435.565
BEESAT 03 Sep 03:43:05 03:46:16 17° 268° (W) 03:49:16 436.000
STARS 03 Sep 03:48:37 03:52:53 50° 74° (ENE) 03:57:12 437.465
JAS-2 03 Sep 03:49:58 03:56:10 39° 95° (E) 04:01:45 435.910
PHONESAT 2.4 03 Sep 04:04:35 04:06:46 16° 145° (SE) 04:09:02 2401.200-2431.200
PCSat 03 Sep 04:05:11 04:06:22 10° 318° (NW) 04:07:14 145.827
VERMONT LUNAR 03 Sep 04:11:57 04:14:52 46° 346° (NNW) 04:17:45 437.305
KKS-1 03 Sep 04:13:25 04:17:42 46° 261° (W) 04:22:01 437.445
Gurwin Techsat 1B 03 Sep 04:18:29 04:23:38 52° 287° (WNW) 04:28:46 435.225
GONETS M04 03 Sep 04:21:42 04:30:01 48° 284° (WNW) 04:38:19
ITAMSAT 1 03 Sep 04:22:18 04:27:24 59° 287° (WNW) 04:32:30 435.822/435.867
RS-15 03 Sep 04:28:46 04:36:42 19° 258° (WSW) 04:43:47 29.354- 29.394
MOZHAYETS 4 03 Sep 04:43:09 04:47:33 46° 74° (ENE) 04:51:57
O/OREOS (USA 219) 03 Sep 04:46:52 04:50:58 32° 63° (ENE) 04:55:05 437.305
AO-7 03 Sep 05:07:13 05:15:19 57° 102° (ESE) 05:23:26 29.400- 29.500
HORYU 2 03 Sep 05:19:08 05:23:35 68° 102° (ESE) 05:27:59 437.375
Cosmos 2499 03 Sep 05:25:43 05:34:07 67° 280° (W) 05:42:57 435.465 / 435.565
STARS 03 Sep 05:27:46 05:29:40 12° 270° (W) 05:31:20 437.465
JAS-2 03 Sep 05:35:15 05:41:04 30° 294° (WNW) 05:46:10 435.910
PHONESAT 2.4 03 Sep 05:40:56 05:44:21 88° 165° (SSE) 05:47:47 2401.200-2431.200
VERMONT LUNAR 03 Sep 05:48:55 05:51:36 30° 2° (N) 05:54:18 437.305
MOZHAYETS 4 03 Sep 06:22:24 06:25:03 15° 269° (W) 06:27:28
Cubesat XI-IV 03 Sep 06:23:26 06:24:35 11° 88° (E) 06:26:08 437.490
O/OREOS (USA 219) 03 Sep 06:26:44 06:30:12 21° 258° (WSW) 06:33:32 437.305
CUBESAT XI-V 03 Sep 06:43:41 06:48:15 77° 78° (ENE) 06:52:51 437.345
HORYU 2 03 Sep 06:59:12 06:59:42 10° 295° (WNW) 06:59:55 437.375
AO-7 03 Sep 07:00:46 07:07:46 30° 298° (WNW) 07:14:30 29.400- 29.500
CUTE-I 03 Sep 07:04:42 07:09:21 31° 96° (E) 07:14:05 437.470
ISS 03 Sep 07:18:42 07:20:42 16° 129° (SE) 07:22:48 145.825
PHONESAT 2.4 03 Sep 07:19:15 07:22:26 36° 354° (N) 07:25:39 2401.200-2431.200
VERMONT LUNAR 03 Sep 07:25:20 07:28:17 64° 18° (NNE) 07:31:14 437.305
Cosmos 2499 03 Sep 07:26:41 07:29:26 11° 302° (WNW) 07:31:25 435.465 / 435.565
STRAND 1 03 Sep 07:34:29 07:39:31 68° 75° (ENE) 07:44:36 437.568
PRISM 03 Sep 07:39:56 07:43:53 50° 74° (ENE) 07:47:52 437.425
YUBILEINY 03 Sep 07:51:33 07:58:58 31° 71° (ENE) 08:06:34 435.215
Cubesat XI-IV 03 Sep 08:00:01 08:05:20 76° 285° (WNW) 08:10:40 437.490
AIST 1 03 Sep 08:09:10 08:13:06 39° 93° (E) 08:17:05
BRITE-PL 03 Sep 08:31:28 08:36:49 45° 97° (E) 08:42:16 437.365/2234.400
Cosmos 2491 03 Sep 08:36:50 08:44:08 33° 87° (E) 08:51:40 435.465 / 435.565
CUTE-I 03 Sep 08:44:49 08:49:22 29° 291° (WNW) 08:53:50 437.470
GOMX 1 03 Sep 08:47:20 08:52:23 37° 96° (E) 08:57:26 467.674
CANX-2 03 Sep 08:48:12 08:49:39 12° 90° (E) 08:51:22 2200.000
DOVE 4 03 Sep 08:48:49 08:52:51 22° 92° (E) 08:56:56 437.250
ISS 03 Sep 08:53:48 08:56:54 39° 323° (NW) 09:00:00 145.825
PHONESAT 2.4 03 Sep 08:57:27 09:00:43 43° 11° (NNE) 09:03:58 2401.200-2431.200
VERMONT LUNAR 03 Sep 09:02:11 09:04:30 21° 213° (SSW) 09:06:49 437.305
SEEDS 03 Sep 09:04:33 09:06:22 13° 91° (E) 09:08:24 437.485
CINEMA 3 03 Sep 09:15:46 09:18:43 16° 90° (E) 09:21:49 145.822/145.860
STRAND 1 03 Sep 09:17:28 09:19:18 11° 271° (W) 09:20:46 437.568
PRISM 03 Sep 09:19:01 09:19:40 10° 270° (W) 09:20:02 437.425
HO-68 03 Sep 09:19:57 09:26:29 37° 97° (E) 09:33:05 435.675
COMPASS 1 03 Sep 09:21:24 09:23:54 16° 92° (E) 09:26:32 437.405
AAUSAT CUBESAT 2 03 Sep 09:29:10 09:31:42 16° 92° (E) 09:34:24 437.432
YUBILEINY 03 Sep 09:47:43 09:56:13 52° 269° (W) 10:04:33 435.215
AIST 1 03 Sep 09:48:46 09:51:01 14° 289° (WNW) 09:53:03
DANDE 03 Sep 09:58:29 10:01:00 12° 62° (ENE) 10:04:17 436.750
SO-50 03 Sep 09:59:45 10:04:31 47° 56° (NE) 10:09:10 436.795
ANTELSAT 03 Sep 10:02:41 10:05:04 14° 67° (ENE) 10:07:41 437.575/2403.000
Cosmos 2504 03 Sep 10:06:50 10:13:46 29° 70° (ENE) 10:20:33 435.465 / 435.565
CUTE 1.7 + AOD 2 03 Sep 10:07:14 10:11:28 80° 283° (WNW) 10:15:39 437.475
BRITE-PL 03 Sep 10:10:38 10:15:02 23° 291° (WNW) 10:19:21 437.365/2234.400
ZACube-1 03 Sep 10:13:19 10:15:46 15° 91° (E) 10:18:24 437.345
FUNcube-1 03 Sep 10:17:15 10:19:55 16° 91° (E) 10:22:44 145.935
CANX-2 03 Sep 10:21:51 10:25:54 46° 286° (WNW) 10:29:54 2200.000
CUBEBUG 2 03 Sep 10:23:47 10:28:04 37° 97° (E) 10:32:15 437.445
UWE-3 03 Sep 10:25:14 10:29:09 29° 95° (E) 10:33:01 435.000/436.395/437.385
GOMX 1 03 Sep 10:25:45 10:30:18 26° 290° (WNW) 10:34:43 467.674
DOVE 4 03 Sep 10:25:46 10:30:43 40° 288° (WNW) 10:35:32 437.250
Cosmos 2491 03 Sep 10:32:25 10:40:45 48° 284° (WNW) 10:49:02 435.465 / 435.565
PHONESAT 2.4 03 Sep 10:35:20 10:38:39 54° 207° (SSW) 10:41:59 2401.200-2431.200
SEEDS 03 Sep 10:38:27 10:42:25 41° 286° (WNW) 10:46:19 437.485
CUSAT 1 03 Sep 10:50:09 10:57:40 43° 74° (ENE) 11:05:21 437.405
UNISAT 6 03 Sep 10:51:13 10:55:42 48° 74° (ENE) 11:00:15 437.425
CINEMA 3 03 Sep 10:51:27 10:56:13 46° 286° (WNW) 11:00:47 145.822/145.860
COMPASS 1 03 Sep 10:55:56 10:59:41 33° 287° (WNW) 11:03:23 437.405
Oscar 11 03 Sep 10:58:41 11:03:01 85° 99° (E) 11:07:19 145.826/435.025
AUBIESAT-1 03 Sep 10:59:47 11:04:25 57° 70° (ENE) 11:09:00 437.475
AAUSAT CUBESAT 2 03 Sep 11:03:42 11:07:25 32° 287° (WNW) 11:11:04 437.432
PCSat 03 Sep 11:07:22 11:12:36 48° 59° (ENE) 11:17:50 145.827
M-CUBED/EXP-1 PRIME 03 Sep 11:07:39 11:12:27 83° 72° (ENE) 11:17:13 437.505
HO-68 03 Sep 11:07:39 11:14:12 38° 293° (WNW) 11:20:36 435.675
DELFI C3 03 Sep 11:07:50 11:11:48 69° 100° (E) 11:15:45 145.870
TIGRISAT 03 Sep 11:18:24 11:23:05 88° 252° (WSW) 11:27:49 435.000
BUGSAT 1 03 Sep 11:24:27 11:27:23 20° 70° (ENE) 11:30:28 437.445
DUCHIFAT 1 03 Sep 11:28:06 11:31:59 37° 73° (ENE) 11:35:58 145.980
50 SAT 03 Sep 11:28:26 11:30:26 14° 92° (E) 11:32:35 437.505
POLYITAN 1 03 Sep 11:28:37 11:32:38 41° 74° (ENE) 11:36:42 437.675
POPSAT HIP 1 03 Sep 11:30:06 11:34:05 41° 74° (ENE) 11:38:09 437.405
AISAT 03 Sep 11:30:13 11:32:38 15° 92° (E) 11:35:16 437.250
ANTELSAT 03 Sep 11:36:51 11:41:25 53° 261° (W) 11:46:03 437.575/2403.000
DANDE 03 Sep 11:37:37 11:45:33 66° 79° (E) 11:54:01 436.750
SO-50 03 Sep 11:41:25 11:44:42 18° 250° (WSW) 11:47:45 436.795
NANOSAT C BR1 03 Sep 11:46:20 11:50:32 66° 76° (ENE) 11:54:46 145.865
QB50P2 03 Sep 11:47:33 11:51:47 72° 77° (ENE) 11:56:05 145.880/145.840
ZACube-1 03 Sep 11:48:11 11:52:23 40° 287° (WNW) 11:56:26 437.345
FUNcube-1 03 Sep 11:52:20 11:56:27 37° 287° (WNW) 12:00:25 145.935
VELOX 1 03 Sep 11:56:26 12:00:17 28° 96° (E) 12:04:10 145.980
Cosmos 2504 03 Sep 11:58:21 12:06:25 52° 270° (W) 12:13:54 435.465 / 435.565
QB50P1 03 Sep 12:01:11 12:05:25 80° 258° (WSW) 12:09:42 145.935-145.965
CUBEBUG 2 03 Sep 12:01:13 12:04:28 19° 292° (WNW) 12:07:31 437.445
UWE-3 03 Sep 12:01:58 12:05:32 22° 290° (WNW) 12:08:55 435.000/436.395/437.385
HUMSAT D 03 Sep 12:09:51 12:14:01 59° 285° (WNW) 12:18:05 437.325/437.525
UNISAT 6 03 Sep 12:30:02 12:32:46 15° 269° (W) 12:35:17 437.425
DX 1 03 Sep 12:31:27 12:35:49 67° 285° (WNW) 12:40:09 434.975-435.025
CUSAT 1 03 Sep 12:32:45 12:40:11 40° 269° (W) 12:47:29 437.405
AUBIESAT-1 03 Sep 12:36:59 12:39:25 13° 265° (W) 12:41:34 437.475
UKube-1 03 Sep 12:39:36 12:43:54 60° 285° (WNW) 12:48:09 .
GONETS M04 03 Sep 12:41:53 12:45:01 13° 60° (ENE) 12:48:55
SPROUT 03 Sep 12:42:20 12:45:00 16° 92° (E) 12:47:50 437.525
JUGNU 03 Sep 12:49:53 12:53:02 15° 172° (S) 12:56:13 437.505
PCSat 03 Sep 12:51:47 12:55:41 20° 253° (WSW) 12:59:24 145.827
Oscar 19 03 Sep 12:55:07 12:58:08 16° 66° (ENE) 13:01:23 437.125/150
CUBEBUG 1 03 Sep 12:56:40 13:01:06 88° 102° (ESE) 13:05:32 437.445
BUGSAT 1 03 Sep 12:59:14 13:02:42 26° 264° (W) 13:06:11 437.445
50 SAT 03 Sep 13:01:37 13:05:05 31° 287° (WNW) 13:08:28 437.505
ESTCUBE 1 03 Sep 13:02:16 13:06:45 65° 284° (WNW) 13:11:13 437.505/2401.250
AISAT 03 Sep 13:05:10 13:09:27 43° 287° (WNW) 13:13:41 437.250
DUCHIFAT 1 03 Sep 13:05:27 13:07:59 15° 268° (W) 13:10:21 145.980
POLYITAN 1 03 Sep 13:06:25 13:08:46 14° 269° (W) 13:10:54 437.675
POPSAT HIP 1 03 Sep 13:07:57 13:10:12 14° 269° (W) 13:12:16 437.405
DANDE 03 Sep 13:21:48 13:28:19 26° 272° (W) 13:34:47 436.750
VELOX 1 03 Sep 13:33:09 13:36:41 23° 290° (WNW) 13:40:08 145.980
TISAT 1 03 Sep 13:33:58 13:37:53 35° 97° (E) 13:41:49 437.305
ISS 03 Sep 13:49:17 13:49:43 10° 22° (NNE) 13:50:12 145.825
Gurwin Techsat 1B 03 Sep 13:58:21 14:02:07 21° 67° (ENE) 14:06:04 435.225
JAS-2 03 Sep 13:59:23 14:03:49 17° 61° (ENE) 14:08:42 435.910
ITAMSAT 1 03 Sep 14:00:10 14:03:19 17° 66° (ENE) 14:06:42 435.822/435.867
SRMSAT 03 Sep 14:05:55 14:08:19 13° 169° (S) 14:10:47 437.500
BEESAT 03 Sep 14:08:35 14:10:43 13° 91° (E) 14:13:07 436.000
SPROUT 03 Sep 14:17:14 14:21:14 36° 287° (WNW) 14:25:10 437.525
AO-7 03 Sep 14:17:43 14:19:29 11° 51° (NE) 14:21:51 29.400- 29.500
BEESAT 3 03 Sep 14:22:19 14:26:04 38° 115° (ESE) 14:29:52 437.485
RS-15 03 Sep 14:27:03 14:32:34 16° 101° (ESE) 14:39:03 29.354- 29.394
Oscar 19 03 Sep 14:32:02 14:37:05 55° 260° (W) 14:42:11 437.125/150
SWISSCUBE 03 Sep 14:33:25 14:37:29 28° 96° (E) 14:41:35 437.505
GONETS M04 03 Sep 14:34:53 14:43:43 76° 81° (E) 14:52:34
JUGNU 03 Sep 14:37:40 14:41:19 17° 182° (S) 14:44:56 437.505
BEESAT 2 03 Sep 14:38:41 14:42:32 43° 115° (ESE) 14:46:27 435.950
TISAT 1 03 Sep 15:10:34 15:13:23 17° 291° (WNW) 15:16:04 437.305
ITUPSAT 1 03 Sep 15:12:54 15:17:40 69° 102° (ESE) 15:22:25 437.325
Cosmos 2499 03 Sep 15:21:33 15:29:22 40° 74° (ENE) 15:36:47 435.465 / 435.565
ISS 03 Sep 15:23:31 15:26:44 58° 40° (NE) 15:29:55 145.825
AIST 2 03 Sep 15:35:16 15:39:03 33° 114° (ESE) 15:42:55 435.215
Gurwin Techsat 1B 03 Sep 15:36:46 15:41:49 44° 261° (W) 15:46:53 435.225
ITAMSAT 1 03 Sep 15:37:25 15:42:27 52° 260° (W) 15:47:30 435.822/435.867
JAS-2 03 Sep 15:40:14 15:47:55 87° 76° (ENE) 15:55:50 435.910
STARS 03 Sep 15:43:28 15:44:52 12° 90° (E) 15:46:34 437.465
BEESAT 03 Sep 15:44:18 15:48:56 53° 286° (WNW) 15:53:33 436.000
SRMSAT 03 Sep 15:53:07 15:56:44 17° 179° (S) 16:00:23 437.500
BEESAT 3 03 Sep 16:01:19 16:04:09 18° 311° (NW) 16:06:54 437.485
AO-7 03 Sep 16:02:41 16:10:48 60° 68° (ENE) 16:18:58 29.400- 29.500
KKS-1 03 Sep 16:07:19 16:11:34 41° 98° (E) 16:15:48 437.445
SWISSCUBE 03 Sep 16:11:18 16:15:14 26° 290° (WNW) 16:19:05 437.505
HORYU 2 03 Sep 16:14:21 16:18:35 43° 73° (ENE) 16:22:52 437.375
BEESAT 2 03 Sep 16:18:08 16:20:49 16° 312° (NW) 16:23:22 435.950
JUGNU 03 Sep 16:27:23 16:29:35 12° 192° (SSW) 16:31:42 437.505
RS-15 03 Sep 16:32:37 16:43:31 85° 117° (ESE) 16:54:51 29.354- 29.394
GONETS M04 03 Sep 16:33:46 16:39:45 20° 278° (W) 16:45:15
MOZHAYETS 4 03 Sep 16:42:53 16:44:58 13° 90° (E) 16:47:19
ITUPSAT 1 03 Sep 16:53:26 16:55:02 11° 295° (WNW) 16:56:22 437.325
ISS 03 Sep 17:02:01 17:02:48 11° 232° (SW) 17:03:27 145.825
AIST 2 03 Sep 17:14:24 17:17:42 21° 310° (NW) 17:20:56 435.215
Cosmos 2499 03 Sep 17:14:48 17:22:30 38° 273° (W) 17:29:32 435.465 / 435.565
STARS 03 Sep 17:17:21 17:21:42 53° 286° (WNW) 17:26:00 437.465
JAS-2 03 Sep 17:29:08 17:33:55 16° 274° (W) 17:38:16 435.910
Cubesat XI-IV 03 Sep 17:41:55 17:44:48 15° 65° (ENE) 17:47:56 437.490
SRMSAT 03 Sep 17:42:09 17:45:10 14° 189° (S) 17:48:08 437.500
KKS-1 03 Sep 17:45:00 17:47:53 16° 292° (WNW) 17:50:36 437.445
HORYU 2 03 Sep 17:52:48 17:55:27 15° 268° (W) 17:57:55 437.375
AO-7 03 Sep 17:57:11 18:04:05 27° 265° (W) 18:10:43 29.400- 29.500
MOZHAYETS 4 03 Sep 18:18:07 18:22:31 48° 286° (WNW) 18:26:53
CUTE-I 03 Sep 18:23:41 18:28:33 38° 71° (ENE) 18:33:28 437.470
CUBESAT XI-V 03 Sep 18:43:49 18:47:32 24° 94° (E) 18:51:21 437.345
RS-15 03 Sep 18:48:17 18:57:33 28° 323° (NW) 19:06:52 29.354- 29.394
Cosmos 2491 03 Sep 18:52:45 18:55:48 13° 60° (ENE) 18:59:36 435.465 / 435.565
O/OREOS (USA 219) 03 Sep 18:55:39 19:00:07 64° 108° (ESE) 19:04:39 437.305
Cubesat XI-IV 03 Sep 19:19:12 19:24:27 61° 259° (W) 19:29:44 437.490
BRITE-PL 03 Sep 19:40:12 19:44:04 31° 71° (ENE) 19:48:15 437.365/2234.400
HO-68 03 Sep 19:46:52 19:51:50 21° 62° (ENE) 19:57:05 435.675
STRAND 1 03 Sep 19:48:24 19:52:46 29° 96° (E) 19:57:12 437.568
DOVE 4 03 Sep 19:52:33 19:55:09 15° 66° (ENE) 19:58:02 437.250
GOMX 1 03 Sep 19:53:12 19:56:53 25° 69° (ENE) 20:00:54 467.674
AIST 1 03 Sep 19:56:13 20:00:33 76° 264° (W) 20:04:54
CUTE-I 03 Sep 20:04:35 20:08:46 23° 266° (W) 20:12:49 437.470
CINEMA 3 03 Sep 20:16:11 20:17:30 11° 65° (ENE) 20:19:09 145.822/145.860
CUBESAT XI-V 03 Sep 20:20:57 20:24:58 29° 289° (WNW) 20:28:55 437.345
O/OREOS (USA 219) 03 Sep 20:38:21 20:40:06 12° 306° (NW) 20:41:37 437.305
Cosmos 2491 03 Sep 20:45:43 20:54:30 76° 82° (E) 21:03:18 435.465 / 435.565
YUBILEINY 03 Sep 20:48:37 20:56:23 39° 88° (E) 21:04:23 435.215
CUTE 1.7 + AOD 2 03 Sep 20:56:54 21:01:01 48° 75° (ENE) 21:05:09 437.475
PRISM 03 Sep 20:59:57 21:04:02 62° 285° (WNW) 21:08:06 437.425
RS-15 03 Sep 21:10:43 21:15:41 13° 357° (N) 21:20:42 29.354- 29.394
CANX-2 03 Sep 21:11:14 21:15:32 83° 77° (ENE) 21:19:50 2200.000
FUNcube-1 03 Sep 21:12:27 21:12:53 10° 66° (ENE) 21:13:36 145.935
CUBEBUG 2 03 Sep 21:19:13 21:22:52 24° 70° (ENE) 21:26:40 437.445
BRITE-PL 03 Sep 21:19:24 21:22:44 20° 269° (W) 21:26:06 437.365/2234.400
UWE-3 03 Sep 21:19:57 21:23:02 19° 69° (ENE) 21:26:19 435.000/436.395/437.385
SEEDS 03 Sep 21:26:53 21:31:08 89° 78° (ENE) 21:35:23 437.485
STRAND 1 03 Sep 21:27:33 21:31:55 29° 290° (WNW) 21:36:14 437.568
DOVE 4 03 Sep 21:27:56 21:32:25 51° 262° (W) 21:37:13 437.250
GOMX 1 03 Sep 21:31:03 21:34:57 27° 266° (W) 21:39:01 467.674
HO-68 03 Sep 21:31:53 21:39:01 68° 258° (WSW) 21:46:10 435.675
COMPASS 1 03 Sep 21:43:22 21:47:34 76° 260° (W) 21:51:47 437.405
